EEL RIVER CAMP CA US current weather conditions

sailwx.info

Wind from 237 at 1 knots gusting 3

Air temperature 10.0° C
Dewpoint 6.2° C

Last reported at 2017-Jan-25 00:28 UTC.
Time now 2017-Jan-25 01:15 UTC

Location: N 40°08' W 123°49'.
View on Google Maps.

See reports from other nearby stations

  
Tides and Currents Weather Stations Pressure Air Temp Water Temp Dewpoint Dewpoint Depression Visibility Wind Speed Wind Dir Waves Ship Positions
date/time (UTC)wind fromknots sea level pressurealtimeterstation pressurevisibilityair tempwater tempwave heightnotes
2017-Jan-25 00:28 237 1 gusting 3 10.0
2017-Jan-24 23:28 086 1 gusting 3 12.8
2017-Jan-24 22:28 118 2 gusting 3 12.2
2017-Jan-24 21:28 133 1 gusting 3 10.0
2017-Jan-24 20:28 155 2 gusting 4 7.2
2017-Jan-24 19:28 4.4
2017-Jan-24 18:28 188 1 gusting 3 2.8
2017-Jan-24 17:28 190 0 gusting 3 1.7
2017-Jan-24 16:28 188 1 gusting 4 1.7
2017-Jan-24 15:28 241 2 gusting 4 1.7
2017-Jan-24 14:28 255 2 gusting 4 1.7
2017-Jan-24 13:28 182 2 gusting 4 1.7
2017-Jan-24 12:28 301 2 gusting 4 2.2
2017-Jan-24 11:28 284 2 gusting 3 2.2
2017-Jan-24 10:28 349 2 gusting 5 2.2
2017-Jan-24 09:28 360 0 gusting 4 2.8
2017-Jan-24 08:28 269 1 gusting 3 2.8
2017-Jan-24 07:28 283 2 gusting 3 2.8
2017-Jan-24 06:28 2.8
2017-Jan-24 05:28 268 1 gusting 3 3.3
2017-Jan-24 04:28 265 1 gusting 3 3.9
2017-Jan-24 03:28 290 1 gusting 3 4.4
2017-Jan-24 02:28 351 2 gusting 5 5.0
2017-Jan-24 01:28 004 0 gusting 4 5.6
2017-Jan-24 00:28 160 3 gusting 11 6.1
2017-Jan-23 23:28 205 3 gusting 6 7.8
2017-Jan-23 22:28 003 2 gusting 10 7.8
2017-Jan-23 21:28 161 4 gusting 7 7.2
2017-Jan-23 20:28 302 1 gusting 3 8.3
2017-Jan-23 19:28 285 1 gusting 4 6.1
2017-Jan-23 18:28 3.9
2017-Jan-23 17:28 222 1 gusting 2 3.3
2017-Jan-23 16:28 082 0 gusting 2 2.8
2017-Jan-23 15:28 154 1 gusting 2 2.8
2017-Jan-23 14:28 2.8
2017-Jan-23 13:28 062 1 gusting 2 2.8
2017-Jan-23 12:28 104 0 gusting 3 2.8
2017-Jan-23 11:28 038 1 gusting 4 2.8
2017-Jan-23 10:28 286 1 gusting 4 2.8
2017-Jan-23 09:28 349 1 gusting 3 2.8
2017-Jan-23 08:28 336 2 gusting 3 2.8
2017-Jan-23 07:28 068 1 gusting 3 3.3
2017-Jan-23 06:28 292 1 gusting 6 3.3
2017-Jan-23 05:28 086 2 gusting 5 3.9
2017-Jan-23 04:28 113 0 gusting 1 3.9
2017-Jan-23 03:28 3.9
2017-Jan-23 02:28 172 1 gusting 2 3.9
2017-Jan-23 01:28 337 2 gusting 4 3.9